Page, AZ

8:43 AM MST on February 23, 2017 (GMT -0700)
Page Municipal

Weather History for KPGA - October, 2012

Change the Weather History Date:

Monday, October 1, 2012

  Actual Average Record
Temperature  
Mean Temperature 74 °F -  
Max Temperature 87 °F 80 °F 93 °F (2015)
Min Temperature 60 °F 53 °F 40 °F (1971)
Cooling Degree Days 8    
Growing Degree Days 24 (Base 50)    
Moisture  
Dew Point 29 °F    
Average Humidity 19    
Maximum Humidity 29    
Minimum Humidity 6    
Precipitation  
Precipitation 0.00 in - - ()
Sea Level Pressure  
Sea Level Pressure 30.00 in    
Wind  
Wind Speed 2 mph (SSW)    
Max Wind Speed 7 mph    
Max Gust Speed -    
Visibility 10 miles    
Events      
Averages and records for this station are not official NWS values.
T = Trace of Precipitation, MM = Missing Value Source: NWS Daily Summary

Daily Weather History Graph

Daily Weather History Graph

Search for Another Location

Airport or City:

Trip Planner

Search our weather history database for the weather conditions in past years. The results will help you decide how hot, cold, wet, or windy it might be!

Date:

Astronomy

Oct. 01, 2012 Rise Set
Actual Time 6:21 AM MST 6:08 PM MST
Civil Twilight 5:55 AM MST 6:34 PM MST
Nautical Twilight 5:25 AM MST 7:04 PM MST
Astronomical Twilight 4:55 AM MST 7:34 PM MST
Moon 6:51 PM MST (10/1) 7:50 AM MST (10/1)
Length of Visible Light 12h 38m
Length of Day
11h 46m
Full, 97% of the Moon is Illuminated
Oct 1
Full
Oct 8
Last Quarter
Oct 15
New
Oct 21
First Quarter
Oct 29
Full

Hourly Weather History & Observations

Time (MST) Temp. Dew Point Humidity Pressure Visibility Wind Dir Wind Speed Gust Speed Precip Events Conditions
12:53 AM 64.9 °F 30.9 °F 28% 29.99 in 10.0 mi Calm Calm - N/A   Clear
1:53 AM 66.0 °F 30.0 °F 26% 29.99 in 10.0 mi South 3.5 mph - N/A   Clear
2:53 AM 64.9 °F 28.9 °F 26% 29.99 in 10.0 mi SSW 3.5 mph - N/A   Clear
3:53 AM 66.0 °F 28.0 °F 24% 30.00 in 10.0 mi SSW 4.6 mph - N/A   Clear
4:53 AM 64.9 °F 28.0 °F 25% 30.01 in 10.0 mi SSW 4.6 mph - N/A   Clear
5:53 AM 62.1 °F 28.9 °F 29% 30.04 in 10.0 mi Calm Calm - N/A   Clear
6:53 AM 63.0 °F 30.0 °F 29% 30.07 in 10.0 mi Calm Calm - N/A   Clear
7:53 AM 69.1 °F 30.0 °F 23% 30.09 in 10.0 mi NNW 4.6 mph - N/A   Clear
8:53 AM 72.0 °F 28.0 °F 20% 30.09 in 10.0 mi Variable 3.5 mph - N/A   Clear
9:53 AM 73.9 °F 30.0 °F 20% 30.08 in 10.0 mi Variable 3.5 mph - N/A   Clear
10:53 AM 78.1 °F 28.9 °F 17% 30.07 in 10.0 mi Calm Calm - N/A   Clear
11:53 AM 81.0 °F 28.9 °F 15% 30.05 in 10.0 mi NE 4.6 mph - N/A   Clear
12:53 PM 82.9 °F 28.9 °F 14% 30.02 in 10.0 mi ENE 4.6 mph - N/A   Clear
1:53 PM 84.0 °F 28.0 °F 13% 29.99 in 10.0 mi Variable 3.5 mph - N/A   Clear
2:53 PM 86.0 °F 28.0 °F 12% 29.96 in 10.0 mi NNE 6.9 mph - N/A   Clear
3:53 PM 84.9 °F 28.0 °F 13% 29.94 in 10.0 mi North 3.5 mph - N/A   Clear
4:53 PM 84.2 °F 26.6 °F 12% 30.11 in 10.0 mi Calm Calm - N/A   Clear
5:53 PM 82.9 °F 27.0 °F 13% 29.93 in 10.0 mi Calm Calm - N/A   Clear
6:53 PM 75.9 °F 32.0 °F 20% 29.94 in 10.0 mi Calm Calm - N/A   Clear
7:53 PM 73.9 °F 30.9 °F 21% 29.94 in 10.0 mi Calm Calm - N/A   Clear
8:53 PM 73.9 °F 28.9 °F 19% 29.94 in 10.0 mi South 3.5 mph - N/A   Clear
9:53 PM 71.1 °F 30.0 °F 22% 29.94 in 10.0 mi SSW 4.6 mph - N/A   Clear
10:53 PM 69.1 °F 30.0 °F 23% 29.94 in 10.0 mi Calm Calm - N/A   Clear
11:53 PM 64.9 °F 30.9 °F 28% 29.94 in 10.0 mi Calm Calm - N/A   Clear